Logical identifier,Start Time,Stop Time,Name,Latitude (deg),Longitude (deg),Solar_latitude (deg),Solar_longitude (deg),Altitude (km),Altitude_above_terrain (km),Activity_type,Emission_angle (deg),Phase_angle (deg) ,Solar_incidence_angle (deg),Telescope_target
urn:nasa:pds:ladee_uvs:cal:0068r_0000,2013-11-11T07:53:52.874Z,2013-11-11T07:54:02.874Z,Moon,-17.7476560021,145.1437443332,-19.2170202495,115.7808431057,226.8250296452,221.9475296452,RamOnly,0,0,0,DarkSky
urn:nasa:pds:ladee_uvs:cal:0068r_0001,2013-11-11T07:54:02.975Z,2013-11-11T07:54:12.975Z,Moon,-17.859631593,144.6772418395,-19.3260786162,116.250706217,226.2192130313,220.8462130313,RamOnly,0,0,0,DarkSky
urn:nasa:pds:ladee_uvs:cal:0068r_0002,2013-11-11T07:54:13.075Z,2013-11-11T07:54:23.075Z,Moon,-17.9705616841,144.2099109679,-19.4339883637,116.7214414128,225.60846539,220.15796539,RamOnly,0,0,0,DarkSky
urn:nasa:pds:ladee_uvs:cal:0068r_0003,2013-11-11T07:54:23.274Z,2013-11-11T07:54:33.274Z,Moon,-18.0815206653,143.7371027592,-19.5417920425,117.1977309588,224.9866946708,220.5466946708,RamOnly,0,0,0,DarkSky
urn:nasa:pds:ladee_uvs:cal:0068r_0004,2013-11-11T07:54:33.375Z,2013-11-11T07:54:43.375Z,Moon,-18.1903428324,143.2679992418,-19.6473848687,117.6703240954,224.3660153053,219.9480153053,RamOnly,0,0,0,DarkSky
urn:nasa:pds:ladee_uvs:cal:0068r_0005,2013-11-11T07:54:43.476Z,2013-11-11T07:54:53.476Z,Moon,-18.2981050017,142.7979918821,-19.7518130283,118.143861978,223.7404243197,218.8894243197,RamOnly,0,0,0,DarkSky
urn:nasa:pds:ladee_uvs:cal:0068r_0006,2013-11-11T07:54:53.675Z,2013-11-11T07:55:03.675Z,Moon,-18.4058236134,142.3225188145,-19.8560588151,118.6229400575,223.1038354932,217.6748354932,RamOnly,0,0,0,DarkSky
urn:nasa:pds:ladee_uvs:cal:0068r_0007,2013-11-11T07:55:03.775Z,2013-11-11T07:55:13.775Z,Moon,-18.5114041017,141.8507790055,-19.9580945347,119.0982884206,222.4686054025,218.1266054025,RamOnly,0,0,0,DarkSky
urn:nasa:pds:ladee_uvs:cal:0068r_0008,2013-11-11T07:55:13.875Z,2013-11-11T07:55:23.875Z,Moon,-18.6158925046,141.3781356339,-20.058932512,119.5745776785,221.8285833748,219.9780833748,RamOnly,0,0,0,DarkSky
urn:nasa:pds:ladee_uvs:cal:0068r_0009,2013-11-11T07:55:23.976Z,2013-11-11T07:55:33.976Z,Moon,-18.7192776892,140.9045907447,-20.1585613079,120.0518045395,221.1838117409,220.3278117409,RamOnly,0,0,0,DarkSky
urn:nasa:pds:ladee_uvs:cal:0068r_0010,2013-11-11T07:55:34.178Z,2013-11-11T07:55:44.178Z,Moon,-18.8225706813,140.4253738571,-20.2579522946,120.534775738,220.5277823204,220.3457823204,RamOnly,0,0,0,DarkSky
urn:nasa:pds:ladee_uvs:cal:0068r_0011,2013-11-11T07:55:44.275Z,2013-11-11T07:55:54.275Z,Moon,-18.9236610085,139.9502309636,-20.3550741182,121.0136676218,219.8738795627,218.1713795627,RamOnly,0,0,0,DarkSky
urn:nasa:pds:ladee_uvs:cal:0068r_0012,2013-11-11T07:55:54.375Z,2013-11-11T07:56:04.375Z,Moon,-19.0236462722,139.4740485238,-20.4509828973,121.4936323666,219.2151589185,215.8221589185,RamOnly,0,0,0,DarkSky
urn:nasa:pds:ladee_uvs:cal:0068r_0013,2013-11-11T07:56:04.576Z,2013-11-11T07:56:14.576Z,Moon,-19.1234619023,138.9922237778,-20.5465728459,121.9793083281,218.5452420729,214.6157420729,RamOnly,0,0,0,DarkSky
urn:nasa:pds:ladee_uvs:cal:0068r_0014,2013-11-11T07:56:14.679Z,2013-11-11T07:56:24.679Z,Moon,-19.2211600353,138.5141060771,-20.6399777809,122.4612700748,217.8771674609,214.1746674609,RamOnly,0,0,0,DarkSky
urn:nasa:pds:ladee_uvs:cal:0068r_0015,2013-11-11T07:56:24.775Z,2013-11-11T07:56:34.775Z,Moon,-19.3176254476,138.0354167526,-20.7320453425,122.9438289534,217.2050484506,212.0955484506,RamOnly,0,0,0,DarkSky
urn:nasa:pds:ladee_uvs:cal:0068r_0016,2013-11-11T07:56:34.975Z,2013-11-11T07:56:44.975Z,Moon,-19.4138770575,137.5509522467,-20.8237449692,123.4322294639,216.5215742018,213.0200742018,RamOnly,0,0,0,DarkSky
urn:nasa:pds:ladee_uvs:cal:0068r_0017,2013-11-11T07:56:45.075Z,2013-11-11T07:56:55.075Z,Moon,-19.5079971311,137.0703098935,-20.9132488132,123.9167948804,215.8403243842,213.5163243842,RamOnly,0,0,0,DarkSky
urn:nasa:pds:ladee_uvs:cal:0068r_0018,2013-11-11T07:56:55.179Z,2013-11-11T07:57:05.179Z,Moon,-19.6009601325,136.5885596551,-21.0014851661,124.4024937813,215.154397323,213.437397323,RamOnly,0,0,0,DarkSky
urn:nasa:pds:ladee_uvs:cal:0068r_0019,2013-11-11T07:57:05.276Z,2013-11-11T07:57:15.276Z,Moon,-19.6926419198,136.1062960622,-21.0883355527,124.8887252944,214.4646827032,213.2131827032,RamOnly,0,0,0,DarkSky
urn:nasa:pds:ladee_uvs:cal:0068r_0020,2013-11-11T07:57:15.475Z,2013-11-11T07:57:25.475Z,Moon,-19.7840164612,135.6182399986,-21.1747194438,125.3808106733,213.7636301987,211.8946301987,RamOnly,0,0,0,DarkSky
urn:nasa:pds:ladee_uvs:cal:0068r_0021,2013-11-11T07:57:25.576Z,2013-11-11T07:57:35.576Z,Moon,-19.8732823271,135.1339541102,-21.2589329246,125.8691068186,213.0650160095,211.6545160095,RamOnly,0,0,0,DarkSky
urn:nasa:pds:ladee_uvs:cal:0068r_0022,2013-11-11T07:57:35.676Z,2013-11-11T07:57:45.676Z,Moon,-19.9612866263,134.6489011037,-21.3417770682,126.3581868886,212.3623812837,211.1283812837,RamOnly,0,0,0,DarkSky
urn:nasa:pds:ladee_uvs:cal:0068r_0023,2013-11-11T07:57:45.875Z,2013-11-11T07:57:55.875Z,Moon,-20.0488999113,134.1581143752,-21.4240679604,126.8530573017,211.6485323048,210.2550323048,RamOnly,0,0,0,DarkSky
urn:nasa:pds:ladee_uvs:cal:0068r_0024,2013-11-11T07:57:55.975Z,2013-11-11T07:58:05.975Z,Moon,-20.1343867978,133.6712590015,-21.5041748638,127.3439709846,210.9375698128,209.2235698128,RamOnly,0,0,0,DarkSky
urn:nasa:pds:ladee_uvs:cal:0068r_0025,2013-11-11T07:58:06.075Z,2013-11-11T07:58:16.075Z,Moon,-20.218610088,133.1834847891,-21.5829083117,127.8358168639,210.2224958189,208.3779958189,RamOnly,0,0,0,DarkSky
urn:nasa:pds:ladee_uvs:cal:0068r_0026,2013-11-11T07:58:16.274Z,2013-11-11T07:58:26.274Z,Moon,-20.3023532537,132.6900756132,-21.6609970931,128.3333488843,209.4963997195,205.9558997195,RamOnly,0,0,0,DarkSky
urn:nasa:pds:ladee_uvs:cal:0068r_0027,2013-11-11T07:58:26.374Z,2013-11-11T07:58:36.374Z,Moon,-20.3839935635,132.2005351886,-21.7369272659,128.8269822845,208.7733107433,205.7198107433,RamOnly,0,0,0,DarkSky
urn:nasa:pds:ladee_uvs:cal:0068r_0028,2013-11-11T07:58:36.475Z,2013-11-11T07:58:46.475Z,Moon,-20.4643362063,131.7101032849,-21.811449836,129.321515414,208.0462801285,209.0192801285,RamOnly,0,0,0,DarkSky
urn:nasa:pds:ladee_uvs:cal:0068r_0029,2013-11-11T07:58:46.578Z,2013-11-11T07:58:56.578Z,Moon,-20.5433833184,131.2187057623,-21.8845659325,129.8170213747,207.3152406157,209.1182406157,RamOnly,0,0,0,DarkSky
urn:nasa:pds:ladee_uvs:cal:0068r_0030,2013-11-11T07:58:56.775Z,2013-11-11T07:59:06.775Z,Moon,-20.6218292002,130.7218373205,-21.9569139719,130.318041418,206.5734972336,208.3934972336,RamOnly,0,0,0,DarkSky
urn:nasa:pds:ladee_uvs:cal:0068r_0031,2013-11-11T07:59:06.875Z,2013-11-11T07:59:16.875Z,Moon,-20.6981961885,130.2288003246,-22.0271304193,130.8151937489,205.834981635,207.661481635,RamOnly,0,0,0,DarkSky
urn:nasa:pds:ladee_uvs:cal:0068r_0032,2013-11-11T07:59:16.976Z,2013-11-11T07:59:26.976Z,Moon,-20.7732242817,129.7348925208,-22.0958979821,131.3132182187,205.0927296003,206.8782296003,RamOnly,0,0,0,DarkSky
urn:nasa:pds:ladee_uvs:cal:0068r_0033,2013-11-11T07:59:27.175Z,2013-11-11T07:59:37.175Z,Moon,-20.8476160097,129.2352844305,-22.1638564763,131.8169827187,204.3394918592,206.1334918592,RamOnly,0,0,0,DarkSky
urn:nasa:pds:ladee_uvs:cal:0068r_0034,2013-11-11T07:59:37.275Z,2013-11-11T07:59:47.275Z,Moon,-20.9199193589,128.7396658172,-22.2296786386,132.3167151219,203.5899211567,205.3794211567,RamOnly,0,0,0,DarkSky
urn:nasa:pds:ladee_uvs:cal:0068r_0035,2013-11-11T07:59:47.375Z,2013-11-11T07:59:57.375Z,Moon,-20.9908527489,128.2431996365,-22.2940210817,132.8172910038,202.8367798985,204.6077798985,RamOnly,0,0,0,DarkSky
urn:nasa:pds:ladee_uvs:cal:0068r_0036,2013-11-11T07:59:57.476Z,2013-11-11T08:00:07.476Z,Moon,-21.0604122263,127.7458492066,-22.3568793605,133.3187455841,202.0800554398,203.8610554398,RamOnly,0,0,0,DarkSky
urn:nasa:pds:ladee_uvs:cal:0068r_0037,2013-11-11T08:00:07.677Z,2013-11-11T08:00:17.677Z,Moon,-21.1292534672,127.2426997206,-22.4188414686,133.8260322233,201.3122799269,202.9777799269,RamOnly,0,0,0,DarkSky
urn:nasa:pds:ladee_uvs:cal:0068r_0038,2013-11-11T08:00:17.775Z,2013-11-11T08:00:27.775Z,Moon,-21.1959977053,126.7437663251,-22.4786656359,134.3290516265,200.5487797921,202.1227797921,RamOnly,0,0,0,DarkSky
urn:nasa:pds:ladee_uvs:cal:0068r_0039,2013-11-11T08:00:27.876Z,2013-11-11T08:00:37.876Z,Moon,-21.2613480378,126.2438959778,-22.5369850057,134.8329974758,199.7817444779,200.0087444779,RamOnly,0,0,0,DarkSky
urn:nasa:pds:ladee_uvs:cal:0068r_0040,2013-11-11T08:00:38.074Z,2013-11-11T08:00:48.074Z,Moon,-21.3258957637,125.7383242536,-22.5943224699,135.3426709265,199.0038750699,197.5138750699,RamOnly,0,0,0,DarkSky
urn:nasa:pds:ladee_uvs:cal:0068r_0041,2013-11-11T08:00:48.175Z,2013-11-11T08:00:58.175Z,Moon,-21.3883917488,125.2367655013,-22.6495675114,135.8482769795,198.2301605185,198.2036605185,RamOnly,0,0,0,DarkSky
urn:nasa:pds:ladee_uvs:cal:0068r_0042,2013-11-11T08:00:58.276Z,2013-11-11T08:01:08.276Z,Moon,-21.4494525954,124.7343802058,-22.7032682803,136.3546926815,197.4532067075,198.0767067075,RamOnly,0,0,0,DarkSky
urn:nasa:pds:ladee_uvs:cal:0068r_0043,2013-11-11T08:01:08.474Z,2013-11-11T08:01:18.474Z,Moon,-21.5096369201,124.2263169016,-22.7559110218,136.8668062057,196.6655248191,197.5185248191,RamOnly,0,0,0,DarkSky
urn:nasa:pds:ladee_uvs:cal:0068r_0044,2013-11-11T08:01:18.577Z,2013-11-11T08:01:28.577Z,Moon,-21.567793547,123.7222183415,-22.8064878023,137.3748960607,195.8821061801,197.0016061801,RamOnly,0,0,0,DarkSky
urn:nasa:pds:ladee_uvs:cal:0068r_0045,2013-11-11T08:01:28.679Z,2013-11-11T08:01:38.679Z,Moon,-21.6244849755,123.2173280158,-22.8554911292,137.8837549464,195.0956271319,196.4211271319,RamOnly,0,0,0,DarkSky
urn:nasa:pds:ladee_uvs:cal:0068r_0046,2013-11-11T08:01:38.874Z,2013-11-11T08:01:48.874Z,Moon,-21.6802053744,122.7069782649,-22.9033429311,138.3980849204,194.2988334719,195.6418334719,RamOnly,0,0,0,DarkSky
urn:nasa:pds:ladee_uvs:cal:0068r_0047,2013-11-11T08:01:48.975Z,2013-11-11T08:01:58.975Z,Moon,-21.7339220323,122.2005545096,-22.9491554007,138.9084254931,193.5064200744,194.7969200744,RamOnly,0,0,0,DarkSky
urn:nasa:pds:ladee_uvs:cal:0068r_0048,2013-11-11T08:01:59.075Z,2013-11-11T08:02:09.075Z,Moon,-21.7861464489,121.6933656095,-22.9933683635,139.4195026744,192.7111120894,194.0466120894,RamOnly,0,0,0,DarkSky
urn:nasa:pds:ladee_uvs:cal:0068r_0049,2013-11-11T08:02:09.175Z,2013-11-11T08:02:19.175Z,Moon,-21.8368711835,121.1854067473,-23.0359745239,139.9313194518,191.9129427459,193.2354427459,RamOnly,0,0,0,DarkSky
urn:nasa:pds:ladee_uvs:cal:0068r_0050,2013-11-11T08:02:19.374Z,2013-11-11T08:02:29.374Z,Moon,-21.8865628684,120.6716914232,-23.0773596562,140.4488977589,191.1040935056,192.3095935056,RamOnly,0,0,0,DarkSky
urn:nasa:pds:ladee_uvs:cal:0068r_0051,2013-11-11T08:02:29.475Z,2013-11-11T08:02:39.475Z,Moon,-21.9342526778,120.162151243,-23.1167157633,140.9622294149,190.3002422113,189.7527422113,RamOnly,0,0,0,DarkSky
urn:nasa:pds:ladee_uvs:cal:0068r_0052,2013-11-11T08:02:39.577Z,2013-11-11T08:02:49.577Z,Moon,-21.9804234007,119.6517889168,-23.1544455255,141.4763475896,189.4935680374,189.2320680374,RamOnly,0,0,0,DarkSky
urn:nasa:pds:ladee_uvs:cal:0068r_0053,2013-11-11T08:02:49.775Z,2013-11-11T08:02:59.775Z,Moon,-22.0254750124,119.135842384,-23.1908690948,141.9960468822,188.676562935,188.956062935,RamOnly,0,0,0,DarkSky
urn:nasa:pds:ladee_uvs:cal:0068r_0054,2013-11-11T08:02:59.875Z,2013-11-11T08:03:09.875Z,Moon,-22.0685486414,118.6240640741,-23.2252910127,142.5115020536,187.864710629,188.132210629,RamOnly,0,0,0,DarkSky
urn:nasa:pds:ladee_uvs:cal:0068r_0055,2013-11-11T08:03:09.975Z,2013-11-11T08:03:19.975Z,Moon,-22.1100735927,118.1115383012,-23.2580591414,143.0276628867,187.0502740371,187.1827740371,RamOnly,0,0,0,DarkSky
urn:nasa:pds:ladee_uvs:cal:0068r_0056,2013-11-11T08:03:20.075Z,2013-11-11T08:03:30.075Z,Moon,-22.1500389791,117.5983079658,-23.2891636645,143.5444843146,186.2333613127,185.9213613127,RamOnly,0,0,0,DarkSky
urn:nasa:pds:ladee_uvs:cal:0068r_0057,2013-11-11T08:03:30.275Z,2013-11-11T08:03:40.275Z,Moon,-22.188810104,117.0792788001,-23.3188809332,144.0670936336,185.4058845118,184.5328845118,RamOnly,0,0,0,DarkSky
urn:nasa:pds:ladee_uvs:cal:0068r_0058,2013-11-11T08:03:40.375Z,2013-11-11T08:03:50.375Z,Moon,-22.2256195442,116.5646271459,-23.3466214164,144.5852424425,184.5841079461,183.4271079461,RamOnly,0,0,0,DarkSky
urn:nasa:pds:ladee_uvs:cal:0068r_0059,2013-11-11T08:03:50.476Z,2013-11-11T08:04:00.476Z,Moon,-22.2608512396,116.0492193483,-23.3726803215,145.1040982023,183.759893349,183.328893349,RamOnly,0,0,0,DarkSky
urn:nasa:pds:ladee_uvs:cal:0068r_0060,2013-11-11T08:04:00.674Z,2013-11-11T08:04:10.674Z,Moon,-22.2948123599,115.5281043692,-23.397275783,145.6286424008,182.9253460158,183.8273460158,RamOnly,0,0,0,DarkSky
urn:nasa:pds:ladee_uvs:cal:0068r_0061,2013-11-11T08:04:10.775Z,2013-11-11T08:04:20.775Z,Moon,-22.3268424934,115.0113075959,-23.4199279957,146.1487818341,182.0965618615,183.2030618615,RamOnly,0,0,0,DarkSky
urn:nasa:pds:ladee_uvs:cal:0068r_0062,2013-11-11T08:04:20.875Z,2013-11-11T08:04:30.875Z,Moon,-22.3572660713,114.4938720972,-23.4408731983,146.6695045207,181.2656489044,180.2041489044,RamOnly,0,0,0,DarkSky
urn:nasa:pds:ladee_uvs:cal:0068r_0063,2013-11-11T08:04:31.074Z,2013-11-11T08:04:41.074Z,Moon,-22.3863529434,113.9706810832,-23.4602866784,147.1959570447,180.4244155868,179.0599155868,RamOnly,0,0,0,DarkSky
urn:nasa:pds:ladee_uvs:cal:0068r_0064,2013-11-11T08:04:41.175Z,2013-11-11T08:04:51.175Z,Moon,-22.4135315177,113.4518930713,-23.4777851435,147.7179157488,179.5892366347,179.1662366347,RamOnly,0,0,0,DarkSky
urn:nasa:pds:ladee_uvs:cal:0068r_0065,2013-11-11T08:04:51.275Z,2013-11-11T08:05:01.275Z,Moon,-22.439084831,112.9324425414,-23.4935588946,148.2404762491,178.7520131075,176.9225131075,RamOnly,0,0,0,DarkSky
urn:nasa:pds:ladee_uvs:cal:0068r_0066,2013-11-11T08:05:01.375Z,2013-11-11T08:05:11.375Z,Moon,-22.463003538,112.4123903878,-23.5076002524,148.7635755251,177.9128840865,177.6633840865,RamOnly,0,0,0,DarkSky
urn:nasa:pds:ladee_uvs:cal:0068r_0067,2013-11-11T08:05:11.576Z,2013-11-11T08:05:21.576Z,Moon,-22.4854960196,111.8865282856,-23.5200179343,149.2924496499,177.0634734913,178.6469734913,RamOnly,0,0,0,DarkSky
urn:nasa:pds:ladee_uvs:cal:0068r_0068,2013-11-11T08:05:21.679Z,2013-11-11T08:05:31.679Z,Moon,-22.5061180947,111.3650774687,-23.5305641026,149.8168170678,176.2203323785,178.1673323785,RamOnly,0,0,0,DarkSky
urn:nasa:pds:ladee_uvs:cal:0068r_0069,2013-11-11T08:05:31.775Z,2013-11-11T08:05:41.775Z,Moon,-22.5250748424,110.843352146,-23.539355182,150.3413891392,175.3759385624,175.0434385624,RamOnly,0,0,0,DarkSky
urn:nasa:pds:ladee_uvs:cal:0068r_0070,2013-11-11T08:05:41.975Z,2013-11-11T08:05:51.975Z,Moon,-22.5425419567,110.3156834357,-23.5464557884,150.8718629219,174.5211472862,174.3296472862,RamOnly,0,0,0,DarkSky
urn:nasa:pds:ladee_uvs:cal:0068r_0071,2013-11-11T08:05:52.075Z,2013-11-11T08:06:02.075Z,Moon,-22.5581645691,109.7925853534,-23.5517181742,151.3976667801,173.6730315997,172.7215315997,RamOnly,0,0,0,DarkSky
urn:nasa:pds:ladee_uvs:cal:0068r_0072,2013-11-11T08:06:02.178Z,2013-11-11T08:06:12.178Z,Moon,-22.5721195435,109.2687538175,-23.5552159728,151.9241316449,172.8230434836,170.9805434836,RamOnly,0,0,0,DarkSky
urn:nasa:pds:ladee_uvs:cal:0068r_0073,2013-11-11T08:06:12.374Z,2013-11-11T08:06:22.374Z,Moon,-22.5845010518,108.7395326178,-23.5569498784,152.4559343843,171.9636596386,171.2456596386,RamOnly,0,0,0,DarkSky
urn:nasa:pds:ladee_uvs:cal:0068r_0074,2013-11-11T08:06:22.475Z,2013-11-11T08:06:32.475Z,Moon,-22.5950753294,108.2147000915,-23.5568835508,152.9832473679,171.1108002927,170.4963002927,RamOnly,0,0,0,DarkSky
urn:nasa:pds:ladee_uvs:cal:0068r_0075,2013-11-11T08:06:32.576Z,2013-11-11T08:06:42.576Z,Moon,-22.6039610812,107.6892763345,-23.5550365427,153.5110735589,170.2564225401,170.0834225401,RamOnly,0,0,0,DarkSky
urn:nasa:pds:ladee_uvs:cal:0068r_0076,2013-11-11T08:06:42.680Z,2013-11-11T08:06:52.680Z,Moon,-22.6111526208,107.1632486569,-23.551403572,154.0394241174,169.4005465165,169.1215465165,RamOnly,0,0,0,DarkSky
urn:nasa:pds:ladee_uvs:cal:0068r_0077,2013-11-11T08:06:52.876Z,2013-11-11T08:07:02.876Z,Moon,-22.616686051,106.6318321552,-23.5459218795,154.5731023558,168.5354213158,168.4854213158,RamOnly,0,0,0,DarkSky
urn:nasa:pds:ladee_uvs:cal:0068r_0078,2013-11-11T08:07:02.975Z,2013-11-11T08:07:12.975Z,Moon,-22.6204536582,106.1049770593,-23.5386907749,155.1021142279,167.677287091,167.467287091,RamOnly,0,0,0,DarkSky
urn:nasa:pds:ladee_uvs:cal:0068r_0079,2013-11-11T08:07:13.075Z,2013-11-11T08:07:23.075Z,Moon,-22.6225115401,105.5775751604,-23.5296615755,155.6315885935,166.8178710105,166.3243710105,RamOnly,0,0,0,DarkSky
urn:nasa:pds:ladee_uvs:cal:0068r_0080,2013-11-11T08:07:23.275Z,2013-11-11T08:07:33.275Z,Moon,-22.6228492364,105.0445014172,-23.5187157064,156.1666678697,165.9488576663,165.6528576663,RamOnly,0,0,0,DarkSky
urn:nasa:pds:ladee_uvs:cal:0068r_0081,2013-11-11T08:07:33.378Z,2013-11-11T08:07:43.378Z,Moon,-22.6214546343,104.5159485485,-23.5060575447,156.697119514,165.0869045079,165.0659045079,RamOnly,0,0,0,DarkSky
urn:nasa:pds:ladee_uvs:cal:0068r_0082,2013-11-11T08:07:43.475Z,2013-11-11T08:07:53.475Z,Moon,-22.6183371594,103.9872893064,-23.491599849,157.2275873685,164.2245116111,164.0055116111,RamOnly,0,0,0,DarkSky
urn:nasa:pds:ladee_uvs:cal:0068r_0083,2013-11-11T08:07:53.674Z,2013-11-11T08:08:03.674Z,Moon,-22.6134344921,103.4528499547,-23.4751583628,157.7637619229,163.35246189,162.95746189,RamOnly,0,0,0,DarkSky
urn:nasa:pds:ladee_uvs:cal:0068r_0084,2013-11-11T08:08:03.775Z,2013-11-11T08:08:13.775Z,Moon,-22.6068374019,102.9231036899,-23.4570507655,158.2951345949,162.4878863218,164.1498863218,RamOnly,0,0,0,DarkSky
urn:nasa:pds:ladee_uvs:cal:0068r_0085,2013-11-11T08:08:13.875Z,2013-11-11T08:08:23.875Z,Moon,-22.598503921,102.3929755598,-23.4371267283,158.8267959967,161.6225468461,162.0035468461,RamOnly,0,0,0,DarkSky
urn:nasa:pds:ladee_uvs:cal:0068r_0086,2013-11-11T08:08:23.976Z,2013-11-11T08:08:33.976Z,Moon,-22.5884290305,101.8624002289,-23.4153806593,159.3588104047,160.7563787445,160.1903787445,RamOnly,0,0,0,DarkSky
urn:nasa:pds:ladee_uvs:cal:0068r_0087,2013-11-11T08:08:34.175Z,2013-11-11T08:08:44.175Z,Moon,-22.5764858141,101.3262497125,-23.3915726808,159.8963170675,159.8810519615,159.3710519615,RamOnly,0,0,0,DarkSky
urn:nasa:pds:ladee_uvs:cal:0068r_0088,2013-11-11T08:08:44.275Z,2013-11-11T08:08:54.275Z,Moon,-22.5629013828,100.7948880684,-23.3661601479,160.4289245265,159.0135296557,160.0940296557,RamOnly,0,0,0,DarkSky
urn:nasa:pds:ladee_uvs:cal:0068r_0089,2013-11-11T08:08:54.375Z,2013-11-11T08:09:04.375Z,Moon,-22.5475668024,100.2631906033,-23.3389219714,160.9617697912,158.145487888,157.211987888,RamOnly,0,0,0,DarkSky
urn:nasa:pds:ladee_uvs:cal:0068r_0090,2013-11-11T08:09:04.576Z,2013-11-11T08:09:14.576Z,Moon,-22.5302987366,99.7258219781,-23.309555285,161.5001971255,157.268260166,157.839260166,RamOnly,0,0,0,DarkSky
urn:nasa:pds:ladee_uvs:cal:0068r_0091,2013-11-11T08:09:14.675Z,2013-11-11T08:09:24.675Z,Moon,-22.511437251,99.1934609788,-23.2786415271,162.0335056485,156.3993223066,157.0568223066,RamOnly,0,0,0,DarkSky
urn:nasa:pds:ladee_uvs:cal:0068r_0092,2013-11-11T08:09:24.775Z,2013-11-11T08:09:34.775Z,Moon,-22.4908133228,98.6606905187,-23.2458909676,162.5671225697,155.5298738659,156.2828738659,RamOnly,0,0,0,DarkSky
urn:nasa:pds:ladee_uvs:cal:0068r_0093,2013-11-11T08:09:34.975Z,2013-11-11T08:09:44.975Z,Moon,-22.4681994149,98.1223851572,-23.210959409,163.1061789572,154.6515968447,155.4020968447,RamOnly,0,0,0,DarkSky
urn:nasa:pds:ladee_uvs:cal:0068r_0094,2013-11-11T08:09:45.075Z,2013-11-11T08:09:55.075Z,Moon,-22.4440320309,97.5890015915,-23.1745236085,163.6402025842,153.7815957571,154.4445957571,RamOnly,0,0,0,DarkSky
urn:nasa:pds:ladee_uvs:cal:0068r_0095,2013-11-11T08:09:55.175Z,2013-11-11T08:10:05.175Z,Moon,-22.418095538,97.0552750326,-23.1362487453,164.174465173,152.9113234092,152.7413234092,RamOnly,0,0,0,DarkSky
urn:nasa:pds:ladee_uvs:cal:0068r_0096,2013-11-11T08:10:05.276Z,2013-11-11T08:10:15.276Z,Moon,-22.390391344,96.5212892344,-23.0961391545,164.7088820246,152.0409603469,153.9619603469,RamOnly,0,0,0,DarkSky
urn:nasa:pds:ladee_uvs:cal:0068r_0097,2013-11-11T08:10:15.475Z,2013-11-11T08:10:25.475Z,Moon,-22.3606199668,95.9818135823,-23.0537739703,165.2486856109,151.1620307139,152.3650307139,RamOnly,0,0,0,DarkSky
urn:nasa:pds:ladee_uvs:cal:0068r_0098,2013-11-11T08:10:25.576Z,2013-11-11T08:10:35.576Z,Moon,-22.3293517781,95.4472307536,-23.00996696,165.7834861489,150.2914947183,149.4119947183,RamOnly,0,0,0,DarkSky
urn:nasa:pds:ladee_uvs:cal:0068r_0099,2013-11-11T08:10:35.675Z,2013-11-11T08:10:45.675Z,Moon,-22.296318626,94.9125444918,-22.9643346949,166.3182827934,149.4212542226,148.3682542226,RamOnly,0,0,0,DarkSky
urn:nasa:pds:ladee_uvs:cal:0068r_0100,2013-11-11T08:10:45.874Z,2013-11-11T08:10:55.874Z,Moon,-22.2611574886,94.372324064,-22.9163864071,166.8585051486,148.5425220066,148.9095220066,RamOnly,0,0,0,DarkSky
urn:nasa:pds:ladee_uvs:cal:0068r_0101,2013-11-11T08:10:55.975Z,2013-11-11T08:11:05.975Z,Moon,-22.2245502156,93.8370812368,-22.8670538081,167.3936407388,147.6724414522,148.8374414522,RamOnly,0,0,0,DarkSky
urn:nasa:pds:ladee_uvs:cal:0068r_0102,2013-11-11T08:11:06.075Z,2013-11-11T08:11:16.075Z,Moon,-22.1861686758,93.3016637707,-22.8158881595,167.9288417767,146.8026735232,149.4866735232,RamOnly,0,0,0,DarkSky
urn:nasa:pds:ladee_uvs:cal:0068r_0103,2013-11-11T08:11:16.175Z,2013-11-11T08:11:26.175Z,Moon,-22.1460109415,92.7660626512,-22.7628883992,168.4641167414,145.9332479091,148.5622479091,RamOnly,0,0,0,DarkSky
urn:nasa:pds:ladee_uvs:cal:0068r_0104,2013-11-11T08:11:26.375Z,2013-11-11T08:11:36.375Z,Moon,-22.1036537973,92.2249992864,-22.7075050595,169.0047388808,145.0556508044,147.8486508044,RamOnly,0,0,0,DarkSky
urn:nasa:pds:ladee_uvs:cal:0068r_0105,2013-11-11T08:11:36.475Z,2013-11-11T08:11:46.475Z,Moon,-22.0599237585,91.6890465434,-22.6508203026,169.5401434933,144.1870762084,147.1810762084,RamOnly,0,0,0,DarkSky
urn:nasa:pds:ladee_uvs:cal:0068r_0106,2013-11-11T08:11:46.578Z,2013-11-11T08:11:56.578Z,Moon,-22.0144010573,91.1527622285,-22.5922846578,170.075768384,143.3187388258,146.0927388258,RamOnly,0,0,0,DarkSky
urn:nasa:pds:ladee_uvs:cal:0068r_0107,2013-11-11T08:11:56.775Z,2013-11-11T08:12:06.775Z,Moon,-21.9666563737,90.6113970231,-22.5313539755,170.6163550752,142.4430054231,145.2765054231,RamOnly,0,0,0,DarkSky
urn:nasa:pds:ladee_uvs:cal:0068r_0108,2013-11-11T08:12:06.876Z,2013-11-11T08:12:16.876Z,Moon,-21.9175723088,90.0749593888,-22.4691557786,171.1519092215,141.5761109163,141.4846109163,RamOnly,0,0,0,DarkSky
urn:nasa:pds:ladee_uvs:cal:0068r_0109,2013-11-11T08:12:16.975Z,2013-11-11T08:12:26.975Z,Moon,-21.8667191077,89.5384801805,-22.4051406562,171.6873931248,140.7100578328,141.0530578328,RamOnly,0,0,0,DarkSky
urn:nasa:pds:ladee_uvs:cal:0068r_0110,2013-11-11T08:12:27.174Z,2013-11-11T08:12:37.174Z,Moon,-21.8135636926,88.9966112264,-22.3386447933,172.2281431812,139.8362720414,140.8602720414,RamOnly,0,0,0,DarkSky
urn:nasa:pds:ladee_uvs:cal:0069r_0000,2013-11-11T08:15:16.874Z,2013-11-11T08:15:26.874Z,Moon,-20.6652354925,79.9762145937,-20.9625146054,181.2131897553,125.4777776138,130.0807776138,RamOnly,0,0,0,DarkSky
urn:nasa:pds:ladee_uvs:cal:0069r_0001,2013-11-11T08:15:26.975Z,2013-11-11T08:15:36.975Z,Moon,-20.5813488623,79.4396959388,-20.8648047488,181.7466251238,124.6376733521,129.0726733521,RamOnly,0,0,0,DarkSky
urn:nasa:pds:ladee_uvs:cal:0069r_0002,2013-11-11T08:15:37.075Z,2013-11-11T08:15:47.075Z,Moon,-20.4957467255,78.9033234904,-20.7653599131,182.2798077613,123.799685582,128.471185582,RamOnly,0,0,0,DarkSky
urn:nasa:pds:ladee_uvs:cal:0069r_0003,2013-11-11T08:15:47.274Z,2013-11-11T08:15:57.274Z,Moon,-20.4075656273,78.3618251468,-20.6631814802,182.8179775456,122.9556574823,125.4191574823,RamOnly,0,0,0,DarkSky
urn:nasa:pds:ladee_uvs:cal:0069r_0004,2013-11-11T08:15:57.375Z,2013-11-11T08:16:07.375Z,Moon,-20.3185174454,77.8256917765,-20.5602537352,183.3507088269,122.1219924887,123.0509924887,RamOnly,0,0,0,DarkSky